Home > Time Zones > World Clock > Weather > Norway > Moss > Past weeks

Flag for Norway Weather past 2 weeks in Moss, Norway

Now
54 °F

Passing clouds.


Feels Like: 50 °F
Forecast: 34 / 54 °F
Wind: 12 mph from Northeast

Location: Rygge


UV Index: 0 (Low)

Visibility: N/A


Pressure: 30.01 "Hg

Humidity: 44%

Dew point: 32 °F

Location of MossLocation

Historic Weather in Moss

°F

Moss temperature yesterday

Maximum temperature yesterday: 45 °F (at 8:50 AM)
Minimum temperature yesterday: 41 °F (at 11:50 PM)
Average temperature yesterday: 44 °F

Past Weeks' High & Low Weather Summary

 TemperatureHumidityPressure
High57 °F (Apr 13, 3:50 PM)100% (Apr 5, 2:20 AM)30.33 "Hg (Apr 5, 2:20 AM)
Low25 °F (Apr 5, 4:50 AM)26% (Apr 15, 3:50 PM)29.39 "Hg (Apr 13, 4:50 AM)
Average42 °F78%29.84 "Hg
* Reported Apr 3 3:20 PM — Apr 18 3:20 PM, Moss, Weather by CustomWeather, © 2014

Note: Actual official high and low records may vary slightly from our data, if they occured in-between our weather recording intervals... More about our weather records

Advertising

Historic Weather Conditions — Data for Previous 24 hours

 ConditionsComfort  
Time TempWeatherWind HumidityBarometerVisibility
3:20 PM
Apr 18
52 °FPassing clouds.14 mph47%29.98 "HgN/A
2:50 PM54 °FPassing clouds.14 mph41%29.98 "HgN/A
2:20 PM52 °FPassing clouds.15 mph44%29.95 "HgN/A
1:20 PM50 °FPassing clouds.16 mph43%29.92 "HgN/A
12:50 PM50 °FPassing clouds.17 mph47%29.92 "HgN/A
11:50 AM48 °FSunny.20 mph46%29.89 "Hg10 mi
11:20 AM48 °FPassing clouds.16 mph46%29.86 "HgN/A
10:50 AM46 °FSunny.20 mph50%29.86 "Hg10 mi
10:20 AM46 °FSunny.23 mph46%29.83 "Hg10 mi
9:50 AM46 °FPassing clouds.16 mph53%29.80 "HgN/A
9:20 AM45 °FPassing clouds.17 mph53%29.80 "HgN/A
8:50 AM43 °FSunny.18 mph61%29.77 "Hg10 mi
8:20 AM43 °FSunny.18 mph57%29.77 "Hg10 mi
7:50 AM43 °FSunny.16 mph61%29.74 "Hg10 mi
7:20 AM41 °FSunny.16 mph66%29.71 "Hg10 mi
6:50 AM41 °FPassing clouds.20 mph66%29.68 "HgN/A
6:20 AM43 °FPassing clouds.18 mph66%29.65 "HgN/A
5:20 AM41 °FPassing clouds.15 mph76%29.62 "HgN/A
4:50 AM41 °FPassing clouds.15 mph76%29.62 "HgN/A
4:20 AM43 °FPassing clouds.14 mph76%29.59 "HgN/A
3:50 AM43 °FPassing clouds.13 mph81%29.59 "HgN/A
3:20 AM43 °FDrizzle. Overcast.13 mph81%29.56 "HgN/A
2:50 AM41 °FLight rain. Passing clouds.10 mph93%29.56 "HgN/A
2:20 AM43 °FLight rain. Fog.12 mph87%29.56 "HgN/A
1:50 AM43 °FLight rain. Mostly cloudy.13 mph81%29.53 "HgN/A
1:20 AM43 °FLight rain. Overcast.9 mph81%29.50 "HgN/A
12:50 AM43 °FLight rain. Fog.9 mph81%29.50 "HgN/A
12:20 AM43 °FPassing clouds.9 mph81%29.47 "HgN/A
11:50 PM
Apr 17
41 °FPassing clouds.7 mph87%29.47 "HgN/A
10:50 PM43 °FClear.7 mph87%29.45 "Hg10 mi
10:20 PM43 °FPassing clouds.8 mph87%29.45 "HgN/A
9:50 PM45 °FLight rain. Passing clouds.8 mph76%29.45 "HgN/A
9:20 PM45 °FPartly sunny.8 mph87%29.45 "HgN/A
8:50 PM45 °FPartly sunny.7 mph87%29.45 "HgN/A
8:20 PM45 °FScattered clouds.8 mph93%29.42 "HgN/A
7:50 PM45 °FBroken clouds.9 mph93%29.42 "HgN/A
6:55 PM45 °FLight rain. Partly sunny.15 mph93%29.42 "Hg6 mi
6:20 PM45 °FDrizzle. Partly sunny.18 mph93%29.45 "Hg4 mi
5:50 PM45 °FDrizzle. Partly sunny.18 mph93%29.45 "Hg4 mi
5:20 PM45 °FLight rain. Low clouds.17 mph93%29.47 "Hg4 mi
4:50 PM45 °FLight rain. Low clouds.18 mph93%29.47 "Hg3 mi
Weather by CustomWeather, © 2014

See weather overview